Weather in Maraba

Brazil     5°21′06″S   49°06′16″W
temp.,
°C
wind,
m/s
gust,
m/s
humid.,
%
clouds,
%
prec.,
mm/h
press.,
hPa
HPBL,
m
17 april, sat
sat1700:00+23e1199100 1.1 101117
03:00+22nnw1399100 7.9 1010103
06:00+22nnw189993 1.0 1011250
09:00+24nnw2590100 1.0 1013507
12:00+27n2374100 0.1 1012933
15:00+28nw117094 0.6 1009954
18:00+25nw008892 0.4 100911
21:00+23ese1199100 6.4 101245
18 april, sun
sun1800:00+23s149996 7.3 1013114
03:00+22sse2699100 11.6 1011253
06:00+21sse27100100 5.7 1012363
09:00+21ese03100100 15.8 1014189
12:00+22n1399100 3.8 1014174
15:00+23nnw249495 3.9 1011435
18:00+22n139595 0.1 1011111
21:00+22nne1196100 0.1 101341
19 april, mon
mon1900:00+21nw009690 0.0 101319
03:00+21ssw0096100 0.0 101123
06:00+20nnw009999 0.0 101216
09:00+24wnw0182100 0.0 1014318
12:00+28sw116542 0.2 1013985
15:00+28nne117532 1.8 1010878
18:00+24ne11955 1.5 101011
21:00+22ene119894 4.7 101312
20 april, tue
tue2000:00+22nnw1198100 0.0 101327
03:00+22nnw119966 0.5 101122
06:00+21n1110076 2.3 101223
09:00+24se0195100 3.2 1014201
12:00+26e119287 5.1 1013510
15:00+25ne0197100 9.9 1010101
18:00+23ene1197100 2.6 101011
21:00+22ene1198100 2.9 101313
21 april, wed
wed2100:00+22n13100100 4.9 1014150
03:00+22ene11100100 21.9 101260
06:00+22ene11100100 9.7 101345
09:00+23se1298100 11.2 1016161
12:00+23sw0198100 0.4 1015139
15:00+23s0197100 0.7 1011200
18:00+23s0098100 0.2 101119
21:00+22se1199100 0.2 101320